Index of /20260503/WXO-DD/model_caps/3km/12/030
Name Last modified Size Description
Parent Directory -
20260503T12Z_MSC_CAPS_AbsoluteVorticity_IsbL-0250_RLatLon0.03_PT030H.grib2 2026-05-03 18:17 1.1M
20260503T12Z_MSC_CAPS_AbsoluteVorticity_IsbL-0500_RLatLon0.03_PT030H.grib2 2026-05-03 18:17 1.1M
20260503T12Z_MSC_CAPS_AbsoluteVorticity_IsbL-0700_RLatLon0.03_PT030H.grib2 2026-05-03 18:17 1.1M
20260503T12Z_MSC_CAPS_AbsoluteVorticity_IsbL-0850_RLatLon0.03_PT030H.grib2 2026-05-03 18:17 1.2M
20260503T12Z_MSC_CAPS_AbsoluteVorticity_IsbL-1000_RLatLon0.03_PT030H.grib2 2026-05-03 18:17 1.4M
20260503T12Z_MSC_CAPS_AirDensity_AGL-120m_RLatLon0.03_PT030H.grib2 2026-05-03 18:17 1.4M
20260503T12Z_MSC_CAPS_AirDensity_AGL-40m_RLatLon0.03_PT030H.grib2 2026-05-03 18:17 1.4M
20260503T12Z_MSC_CAPS_AirDensity_AGL-80m_RLatLon0.03_PT030H.grib2 2026-05-03 18:17 1.4M
20260503T12Z_MSC_CAPS_AirTemp_AGL-120m_RLatLon0.03_PT030H.grib2 2026-05-03 18:17 1.4M
20260503T12Z_MSC_CAPS_AirTemp_AGL-2m_RLatLon0.03_PT030H.grib2 2026-05-03 18:17 1.7M
20260503T12Z_MSC_CAPS_AirTemp_AGL-40m_RLatLon0.03_PT030H.grib2 2026-05-03 18:17 1.5M
20260503T12Z_MSC_CAPS_AirTemp_AGL-80m_RLatLon0.03_PT030H.grib2 2026-05-03 18:17 1.5M
20260503T12Z_MSC_CAPS_AirTemp_IsbL-0050_RLatLon0.03_PT030H.grib2 2026-05-03 18:17 689K
20260503T12Z_MSC_CAPS_AirTemp_IsbL-0100_RLatLon0.03_PT030H.grib2 2026-05-03 18:17 959K
20260503T12Z_MSC_CAPS_AirTemp_IsbL-0150_RLatLon0.03_PT030H.grib2 2026-05-03 18:17 743K
20260503T12Z_MSC_CAPS_AirTemp_IsbL-0175_RLatLon0.03_PT030H.grib2 2026-05-03 18:17 766K
20260503T12Z_MSC_CAPS_AirTemp_IsbL-0200_RLatLon0.03_PT030H.grib2 2026-05-03 18:17 789K
20260503T12Z_MSC_CAPS_AirTemp_IsbL-0225_RLatLon0.03_PT030H.grib2 2026-05-03 18:17 792K
20260503T12Z_MSC_CAPS_AirTemp_IsbL-0250_RLatLon0.03_PT030H.grib2 2026-05-03 18:17 783K
20260503T12Z_MSC_CAPS_AirTemp_IsbL-0275_RLatLon0.03_PT030H.grib2 2026-05-03 18:17 1.0M
20260503T12Z_MSC_CAPS_AirTemp_IsbL-0300_RLatLon0.03_PT030H.grib2 2026-05-03 18:17 1.0M
20260503T12Z_MSC_CAPS_AirTemp_IsbL-0350_RLatLon0.03_PT030H.grib2 2026-05-03 18:17 745K
20260503T12Z_MSC_CAPS_AirTemp_IsbL-0400_RLatLon0.03_PT030H.grib2 2026-05-03 18:17 752K
20260503T12Z_MSC_CAPS_AirTemp_IsbL-0450_RLatLon0.03_PT030H.grib2 2026-05-03 18:17 769K
20260503T12Z_MSC_CAPS_AirTemp_IsbL-0500_RLatLon0.03_PT030H.grib2 2026-05-03 18:17 786K
20260503T12Z_MSC_CAPS_AirTemp_IsbL-0550_RLatLon0.03_PT030H.grib2 2026-05-03 18:17 799K
20260503T12Z_MSC_CAPS_AirTemp_IsbL-0600_RLatLon0.03_PT030H.grib2 2026-05-03 18:17 972K
20260503T12Z_MSC_CAPS_AirTemp_IsbL-0650_RLatLon0.03_PT030H.grib2 2026-05-03 18:17 1.0M
20260503T12Z_MSC_CAPS_AirTemp_IsbL-0700_RLatLon0.03_PT030H.grib2 2026-05-03 18:17 1.0M
20260503T12Z_MSC_CAPS_AirTemp_IsbL-0750_RLatLon0.03_PT030H.grib2 2026-05-03 18:17 1.0M
20260503T12Z_MSC_CAPS_AirTemp_IsbL-0800_RLatLon0.03_PT030H.grib2 2026-05-03 18:17 1.1M
20260503T12Z_MSC_CAPS_AirTemp_IsbL-0850_RLatLon0.03_PT030H.grib2 2026-05-03 18:17 1.1M
20260503T12Z_MSC_CAPS_AirTemp_IsbL-0875_RLatLon0.03_PT030H.grib2 2026-05-03 18:17 1.1M
20260503T12Z_MSC_CAPS_AirTemp_IsbL-0900_RLatLon0.03_PT030H.grib2 2026-05-03 18:17 1.1M
20260503T12Z_MSC_CAPS_AirTemp_IsbL-0925_RLatLon0.03_PT030H.grib2 2026-05-03 18:17 1.2M
20260503T12Z_MSC_CAPS_AirTemp_IsbL-0950_RLatLon0.03_PT030H.grib2 2026-05-03 18:17 1.1M
20260503T12Z_MSC_CAPS_AirTemp_IsbL-0970_RLatLon0.03_PT030H.grib2 2026-05-03 18:17 1.1M
20260503T12Z_MSC_CAPS_AirTemp_IsbL-0985_RLatLon0.03_PT030H.grib2 2026-05-03 18:17 1.0M
20260503T12Z_MSC_CAPS_AirTemp_IsbL-1000_RLatLon0.03_PT030H.grib2 2026-05-03 18:17 1.0M
20260503T12Z_MSC_CAPS_AirTemp_IsbL-1015_RLatLon0.03_PT030H.grib2 2026-05-03 18:17 1.0M
20260503T12Z_MSC_CAPS_Albedo_Sfc_RLatLon0.03_PT030H.grib2 2026-05-03 18:17 2.7M
20260503T12Z_MSC_CAPS_CAPE_Sfc_RLatLon0.03_PT030H.grib2 2026-05-03 18:17 162K
20260503T12Z_MSC_CAPS_CloudWater_EAtm_RLatLon0.03_PT030H.grib2 2026-05-03 18:17 1.6M
20260503T12Z_MSC_CAPS_ConvectivePrecip-Accum_Sfc_RLatLon0.03_PT030H.grib2 2026-05-03 18:17 4.6M
20260503T12Z_MSC_CAPS_DewPointDepression_AGL-120m_RLatLon0.03_PT030H.grib2 2026-05-03 18:17 2.1M
20260503T12Z_MSC_CAPS_DewPointDepression_AGL-2m_RLatLon0.03_PT030H.grib2 2026-05-03 18:17 2.2M
20260503T12Z_MSC_CAPS_DewPointDepression_AGL-40m_RLatLon0.03_PT030H.grib2 2026-05-03 18:17 2.1M
20260503T12Z_MSC_CAPS_DewPointDepression_AGL-80m_RLatLon0.03_PT030H.grib2 2026-05-03 18:17 2.1M
20260503T12Z_MSC_CAPS_DewPointDepression_IsbL-0050_RLatLon0.03_PT030H.grib2 2026-05-03 18:17 5.5K
20260503T12Z_MSC_CAPS_DewPointDepression_IsbL-0100_RLatLon0.03_PT030H.grib2 2026-05-03 18:17 82K
20260503T12Z_MSC_CAPS_DewPointDepression_IsbL-0150_RLatLon0.03_PT030H.grib2 2026-05-03 18:17 89K
20260503T12Z_MSC_CAPS_DewPointDepression_IsbL-0175_RLatLon0.03_PT030H.grib2 2026-05-03 18:17 213K
20260503T12Z_MSC_CAPS_DewPointDepression_IsbL-0200_RLatLon0.03_PT030H.grib2 2026-05-03 18:17 392K
20260503T12Z_MSC_CAPS_DewPointDepression_IsbL-0225_RLatLon0.03_PT030H.grib2 2026-05-03 18:17 665K
20260503T12Z_MSC_CAPS_DewPointDepression_IsbL-0250_RLatLon0.03_PT030H.grib2 2026-05-03 18:17 857K
20260503T12Z_MSC_CAPS_DewPointDepression_IsbL-0275_RLatLon0.03_PT030H.grib2 2026-05-03 18:17 1.0M
20260503T12Z_MSC_CAPS_DewPointDepression_IsbL-0300_RLatLon0.03_PT030H.grib2 2026-05-03 18:17 1.0M
20260503T12Z_MSC_CAPS_DewPointDepression_IsbL-0350_RLatLon0.03_PT030H.grib2 2026-05-03 18:17 1.1M
20260503T12Z_MSC_CAPS_DewPointDepression_IsbL-0400_RLatLon0.03_PT030H.grib2 2026-05-03 18:17 1.1M
20260503T12Z_MSC_CAPS_DewPointDepression_IsbL-0450_RLatLon0.03_PT030H.grib2 2026-05-03 18:17 1.1M
20260503T12Z_MSC_CAPS_DewPointDepression_IsbL-0500_RLatLon0.03_PT030H.grib2 2026-05-03 18:17 1.2M
20260503T12Z_MSC_CAPS_DewPointDepression_IsbL-0550_RLatLon0.03_PT030H.grib2 2026-05-03 18:17 1.2M
20260503T12Z_MSC_CAPS_DewPointDepression_IsbL-0600_RLatLon0.03_PT030H.grib2 2026-05-03 18:17 1.3M
20260503T12Z_MSC_CAPS_DewPointDepression_IsbL-0650_RLatLon0.03_PT030H.grib2 2026-05-03 18:17 1.3M
20260503T12Z_MSC_CAPS_DewPointDepression_IsbL-0700_RLatLon0.03_PT030H.grib2 2026-05-03 18:17 1.3M
20260503T12Z_MSC_CAPS_DewPointDepression_IsbL-0750_RLatLon0.03_PT030H.grib2 2026-05-03 18:17 1.3M
20260503T12Z_MSC_CAPS_DewPointDepression_IsbL-0800_RLatLon0.03_PT030H.grib2 2026-05-03 18:17 1.3M
20260503T12Z_MSC_CAPS_DewPointDepression_IsbL-0850_RLatLon0.03_PT030H.grib2 2026-05-03 18:17 1.4M
20260503T12Z_MSC_CAPS_DewPointDepression_IsbL-0875_RLatLon0.03_PT030H.grib2 2026-05-03 18:17 1.4M
20260503T12Z_MSC_CAPS_DewPointDepression_IsbL-0900_RLatLon0.03_PT030H.grib2 2026-05-03 18:17 1.4M
20260503T12Z_MSC_CAPS_DewPointDepression_IsbL-0925_RLatLon0.03_PT030H.grib2 2026-05-03 18:17 1.4M
20260503T12Z_MSC_CAPS_DewPointDepression_IsbL-0950_RLatLon0.03_PT030H.grib2 2026-05-03 18:17 1.4M
20260503T12Z_MSC_CAPS_DewPointDepression_IsbL-0970_RLatLon0.03_PT030H.grib2 2026-05-03 18:17 1.4M
20260503T12Z_MSC_CAPS_DewPointDepression_IsbL-0985_RLatLon0.03_PT030H.grib2 2026-05-03 18:17 1.3M
20260503T12Z_MSC_CAPS_DewPointDepression_IsbL-1000_RLatLon0.03_PT030H.grib2 2026-05-03 18:17 1.3M
20260503T12Z_MSC_CAPS_DewPointDepression_IsbL-1015_RLatLon0.03_PT030H.grib2 2026-05-03 18:17 1.3M
20260503T12Z_MSC_CAPS_DewPoint_AGL-120m_RLatLon0.03_PT030H.grib2 2026-05-03 18:17 3.7M
20260503T12Z_MSC_CAPS_DewPoint_AGL-2m_RLatLon0.03_PT030H.grib2 2026-05-03 18:17 2.1M
20260503T12Z_MSC_CAPS_DewPoint_AGL-40m_RLatLon0.03_PT030H.grib2 2026-05-03 18:17 3.7M
20260503T12Z_MSC_CAPS_DewPoint_AGL-80m_RLatLon0.03_PT030H.grib2 2026-05-03 18:17 3.7M
20260503T12Z_MSC_CAPS_DownwardLongwaveRadiationFlux-Accum_Sfc_RLatLon0.03_PT030H.grib2 2026-05-03 18:17 2.4M
20260503T12Z_MSC_CAPS_DownwardShortwaveRadiationFlux-Accum_NTAtm_RLatLon0.03_PT030H.grib2 2026-05-03 18:17 486K
20260503T12Z_MSC_CAPS_DownwardShortwaveRadiationFlux-Accum_Sfc_RLatLon0.03_PT030H.grib2 2026-05-03 18:17 2.7M
20260503T12Z_MSC_CAPS_FreezingRain-Accum_Sfc_RLatLon0.03_PT030H.grib2 2026-05-03 18:17 723K
20260503T12Z_MSC_CAPS_GeopotentialHeight_IsbL-0050_RLatLon0.03_PT030H.grib2 2026-05-03 18:17 640K
20260503T12Z_MSC_CAPS_GeopotentialHeight_IsbL-0100_RLatLon0.03_PT030H.grib2 2026-05-03 18:17 766K
20260503T12Z_MSC_CAPS_GeopotentialHeight_IsbL-0150_RLatLon0.03_PT030H.grib2 2026-05-03 18:17 616K
20260503T12Z_MSC_CAPS_GeopotentialHeight_IsbL-0175_RLatLon0.03_PT030H.grib2 2026-05-03 18:17 735K
20260503T12Z_MSC_CAPS_GeopotentialHeight_IsbL-0200_RLatLon0.03_PT030H.grib2 2026-05-03 18:17 746K
20260503T12Z_MSC_CAPS_GeopotentialHeight_IsbL-0225_RLatLon0.03_PT030H.grib2 2026-05-03 18:17 757K
20260503T12Z_MSC_CAPS_GeopotentialHeight_IsbL-0250_RLatLon0.03_PT030H.grib2 2026-05-03 18:17 767K
20260503T12Z_MSC_CAPS_GeopotentialHeight_IsbL-0275_RLatLon0.03_PT030H.grib2 2026-05-03 18:17 780K
20260503T12Z_MSC_CAPS_GeopotentialHeight_IsbL-0300_RLatLon0.03_PT030H.grib2 2026-05-03 18:17 783K
20260503T12Z_MSC_CAPS_GeopotentialHeight_IsbL-0350_RLatLon0.03_PT030H.grib2 2026-05-03 18:17 784K
20260503T12Z_MSC_CAPS_GeopotentialHeight_IsbL-0400_RLatLon0.03_PT030H.grib2 2026-05-03 18:17 780K
20260503T12Z_MSC_CAPS_GeopotentialHeight_IsbL-0450_RLatLon0.03_PT030H.grib2 2026-05-03 18:17 771K
20260503T12Z_MSC_CAPS_GeopotentialHeight_IsbL-0500_RLatLon0.03_PT030H.grib2 2026-05-03 18:17 762K
20260503T12Z_MSC_CAPS_GeopotentialHeight_IsbL-0550_RLatLon0.03_PT030H.grib2 2026-05-03 18:17 640K
20260503T12Z_MSC_CAPS_GeopotentialHeight_IsbL-0600_RLatLon0.03_PT030H.grib2 2026-05-03 18:17 637K
20260503T12Z_MSC_CAPS_GeopotentialHeight_IsbL-0650_RLatLon0.03_PT030H.grib2 2026-05-03 18:17 810K
20260503T12Z_MSC_CAPS_GeopotentialHeight_IsbL-0700_RLatLon0.03_PT030H.grib2 2026-05-03 18:17 810K
20260503T12Z_MSC_CAPS_GeopotentialHeight_IsbL-0750_RLatLon0.03_PT030H.grib2 2026-05-03 18:17 886K
20260503T12Z_MSC_CAPS_GeopotentialHeight_IsbL-0800_RLatLon0.03_PT030H.grib2 2026-05-03 18:17 894K
20260503T12Z_MSC_CAPS_GeopotentialHeight_IsbL-0850_RLatLon0.03_PT030H.grib2 2026-05-03 18:17 905K
20260503T12Z_MSC_CAPS_GeopotentialHeight_IsbL-0875_RLatLon0.03_PT030H.grib2 2026-05-03 18:17 913K
20260503T12Z_MSC_CAPS_GeopotentialHeight_IsbL-0900_RLatLon0.03_PT030H.grib2 2026-05-03 18:17 843K
20260503T12Z_MSC_CAPS_GeopotentialHeight_IsbL-0925_RLatLon0.03_PT030H.grib2 2026-05-03 18:17 853K
20260503T12Z_MSC_CAPS_GeopotentialHeight_IsbL-0950_RLatLon0.03_PT030H.grib2 2026-05-03 18:17 854K
20260503T12Z_MSC_CAPS_GeopotentialHeight_IsbL-0970_RLatLon0.03_PT030H.grib2 2026-05-03 18:17 873K
20260503T12Z_MSC_CAPS_GeopotentialHeight_IsbL-0985_RLatLon0.03_PT030H.grib2 2026-05-03 18:17 882K
20260503T12Z_MSC_CAPS_GeopotentialHeight_IsbL-1000_RLatLon0.03_PT030H.grib2 2026-05-03 18:17 892K
20260503T12Z_MSC_CAPS_GeopotentialHeight_IsbL-1015_RLatLon0.03_PT030H.grib2 2026-05-03 18:17 900K
20260503T12Z_MSC_CAPS_GeopotentialHeight_Sfc_RLatLon0.03_PT030H.grib2 2026-05-03 18:17 1.0M
20260503T12Z_MSC_CAPS_IcePellets-Accum_Sfc_RLatLon0.03_PT030H.grib2 2026-05-03 18:17 35K
20260503T12Z_MSC_CAPS_LatentHeatNetFlux_Sfc_RLatLon0.03_PT030H.grib2 2026-05-03 18:17 2.0M
20260503T12Z_MSC_CAPS_LiftedIndex-MU-VT_IsbL-0500_RLatLon0.03_PT030H.grib2 2026-05-03 18:17 3.4M
20260503T12Z_MSC_CAPS_MixedLayerThickness_Sfc_RLatLon0.03_PT030H.nc 2026-05-03 18:13 16M
20260503T12Z_MSC_CAPS_NetLongwaveRadiationFlux-Accum_Sfc_RLatLon0.03_PT030H.grib2 2026-05-03 18:17 2.6M
20260503T12Z_MSC_CAPS_NetShortwaveRadiationFlux-Accum_Sfc_RLatLon0.03_PT030H.grib2 2026-05-03 18:17 2.8M
20260503T12Z_MSC_CAPS_PlanetaryBoundaryLayerHeight_Sfc_RLatLon0.03_PT030H.grib2 2026-05-03 18:17 3.0M
20260503T12Z_MSC_CAPS_Precip-Accum_Sfc_RLatLon0.03_PT030H.grib2 2026-05-03 18:17 5.1M
20260503T12Z_MSC_CAPS_PrecipRate_Sfc_RLatLon0.03_PT030H.grib2 2026-05-03 18:17 481K
20260503T12Z_MSC_CAPS_PrecipType-Instant_Sfc_RLatLon0.03_PT030H.grib2 2026-05-03 18:17 1.9M
20260503T12Z_MSC_CAPS_Pressure_MSL_RLatLon0.03_PT030H.grib2 2026-05-03 18:17 775K
20260503T12Z_MSC_CAPS_Pressure_Sfc_RLatLon0.03_PT030H.grib2 2026-05-03 18:17 1.2M
20260503T12Z_MSC_CAPS_RadiativeTemp_Sfc_RLatLon0.03_PT030H.grib2 2026-05-03 18:17 2.1M
20260503T12Z_MSC_CAPS_Rain-Accum_Sfc_RLatLon0.03_PT030H.grib2 2026-05-03 18:17 2.5M
20260503T12Z_MSC_CAPS_RelativeHumidity_AGL-120m_RLatLon0.03_PT030H.grib2 2026-05-03 18:17 2.9M
20260503T12Z_MSC_CAPS_RelativeHumidity_AGL-2m_RLatLon0.03_PT030H.grib2 2026-05-03 18:17 2.9M
20260503T12Z_MSC_CAPS_RelativeHumidity_AGL-40m_RLatLon0.03_PT030H.grib2 2026-05-03 18:17 2.9M
20260503T12Z_MSC_CAPS_RelativeHumidity_AGL-80m_RLatLon0.03_PT030H.grib2 2026-05-03 18:17 2.9M
20260503T12Z_MSC_CAPS_RelativeHumidity_IsbL-0050_RLatLon0.03_PT030H.grib2 2026-05-03 18:17 1.0M
20260503T12Z_MSC_CAPS_RelativeHumidity_IsbL-0100_RLatLon0.03_PT030H.grib2 2026-05-03 18:17 881K
20260503T12Z_MSC_CAPS_RelativeHumidity_IsbL-0150_RLatLon0.03_PT030H.grib2 2026-05-03 18:17 613K
20260503T12Z_MSC_CAPS_RelativeHumidity_IsbL-0175_RLatLon0.03_PT030H.grib2 2026-05-03 18:17 492K
20260503T12Z_MSC_CAPS_RelativeHumidity_IsbL-0200_RLatLon0.03_PT030H.grib2 2026-05-03 18:17 661K
20260503T12Z_MSC_CAPS_RelativeHumidity_IsbL-0225_RLatLon0.03_PT030H.grib2 2026-05-03 18:17 886K
20260503T12Z_MSC_CAPS_RelativeHumidity_IsbL-0250_RLatLon0.03_PT030H.grib2 2026-05-03 18:17 1.1M
20260503T12Z_MSC_CAPS_RelativeHumidity_IsbL-0275_RLatLon0.03_PT030H.grib2 2026-05-03 18:17 1.4M
20260503T12Z_MSC_CAPS_RelativeHumidity_IsbL-0300_RLatLon0.03_PT030H.grib2 2026-05-03 18:17 1.7M
20260503T12Z_MSC_CAPS_RelativeHumidity_IsbL-0350_RLatLon0.03_PT030H.grib2 2026-05-03 18:17 1.9M
20260503T12Z_MSC_CAPS_RelativeHumidity_IsbL-0400_RLatLon0.03_PT030H.grib2 2026-05-03 18:17 2.1M
20260503T12Z_MSC_CAPS_RelativeHumidity_IsbL-0450_RLatLon0.03_PT030H.grib2 2026-05-03 18:17 2.0M
20260503T12Z_MSC_CAPS_RelativeHumidity_IsbL-0500_RLatLon0.03_PT030H.grib2 2026-05-03 18:17 2.2M
20260503T12Z_MSC_CAPS_RelativeHumidity_IsbL-0550_RLatLon0.03_PT030H.grib2 2026-05-03 18:17 2.2M
20260503T12Z_MSC_CAPS_RelativeHumidity_IsbL-0600_RLatLon0.03_PT030H.grib2 2026-05-03 18:17 2.2M
20260503T12Z_MSC_CAPS_RelativeHumidity_IsbL-0650_RLatLon0.03_PT030H.grib2 2026-05-03 18:17 2.3M
20260503T12Z_MSC_CAPS_RelativeHumidity_IsbL-0700_RLatLon0.03_PT030H.grib2 2026-05-03 18:17 2.3M
20260503T12Z_MSC_CAPS_RelativeHumidity_IsbL-0750_RLatLon0.03_PT030H.grib2 2026-05-03 18:17 2.4M
20260503T12Z_MSC_CAPS_RelativeHumidity_IsbL-0800_RLatLon0.03_PT030H.grib2 2026-05-03 18:17 2.4M
20260503T12Z_MSC_CAPS_RelativeHumidity_IsbL-0850_RLatLon0.03_PT030H.grib2 2026-05-03 18:17 2.6M
20260503T12Z_MSC_CAPS_RelativeHumidity_IsbL-0875_RLatLon0.03_PT030H.grib2 2026-05-03 18:17 2.6M
20260503T12Z_MSC_CAPS_RelativeHumidity_IsbL-0900_RLatLon0.03_PT030H.grib2 2026-05-03 18:17 2.6M
20260503T12Z_MSC_CAPS_RelativeHumidity_IsbL-0925_RLatLon0.03_PT030H.grib2 2026-05-03 18:17 2.7M
20260503T12Z_MSC_CAPS_RelativeHumidity_IsbL-0950_RLatLon0.03_PT030H.grib2 2026-05-03 18:17 2.7M
20260503T12Z_MSC_CAPS_RelativeHumidity_IsbL-0970_RLatLon0.03_PT030H.grib2 2026-05-03 18:17 2.8M
20260503T12Z_MSC_CAPS_RelativeHumidity_IsbL-0985_RLatLon0.03_PT030H.grib2 2026-05-03 18:17 2.8M
20260503T12Z_MSC_CAPS_RelativeHumidity_IsbL-1000_RLatLon0.03_PT030H.grib2 2026-05-03 18:17 2.9M
20260503T12Z_MSC_CAPS_RelativeHumidity_IsbL-1015_RLatLon0.03_PT030H.grib2 2026-05-03 18:17 2.9M
20260503T12Z_MSC_CAPS_Runoff-Accum_Sfc_RLatLon0.03_PT030H.grib2 2026-05-03 18:17 284K
20260503T12Z_MSC_CAPS_SeaIceAreaFraction_Sfc_RLatLon0.03_PT030H.nc 2026-05-03 18:13 15M
20260503T12Z_MSC_CAPS_SeaIceCompressiveStrength_Sfc_RLatLon0.03_PT030H.nc 2026-05-03 18:13 15M
20260503T12Z_MSC_CAPS_SeaIceDivergence_Sfc_RLatLon0.03_PT030H.nc 2026-05-03 18:13 15M
20260503T12Z_MSC_CAPS_SeaIceInternalPressure_Sfc_RLatLon0.03_PT030H.nc 2026-05-03 18:13 15M
20260503T12Z_MSC_CAPS_SeaIceShear_Sfc_RLatLon0.03_PT030H.nc 2026-05-03 18:13 14M
20260503T12Z_MSC_CAPS_SeaIceSnowTemp_Sfc_RLatLon0.03_PT030H.nc 2026-05-03 18:13 14M
20260503T12Z_MSC_CAPS_SeaIceSnowVolume_Sfc_RLatLon0.03_PT030H.nc 2026-05-03 18:13 15M
20260503T12Z_MSC_CAPS_SeaIceVelocityX_Sfc_RLatLon0.03_PT030H.nc 2026-05-03 18:13 15M
20260503T12Z_MSC_CAPS_SeaIceVelocityY_Sfc_RLatLon0.03_PT030H.nc 2026-05-03 18:13 15M
20260503T12Z_MSC_CAPS_SeaIceVolume_Sfc_RLatLon0.03_PT030H.nc 2026-05-03 18:13 15M
20260503T12Z_MSC_CAPS_SeaSurfaceHeight_Sfc_RLatLon0.03_PT030H.nc 2026-05-03 18:13 16M
20260503T12Z_MSC_CAPS_SeaWaterSalinity_DBS-0.5m_RLatLon0.03_PT030H.nc 2026-05-03 18:13 16M
20260503T12Z_MSC_CAPS_SeaWaterSalinity_DBS-all_RLatLon0.03_PT030H.nc 2026-05-03 18:13 107M
20260503T12Z_MSC_CAPS_SeaWaterTemp_DBS-0.5m_RLatLon0.03_PT030H.nc 2026-05-03 18:13 14M
20260503T12Z_MSC_CAPS_SeaWaterTemp_DBS-all_RLatLon0.03_PT030H.nc 2026-05-03 18:13 88M
20260503T12Z_MSC_CAPS_SeaWaterVelocityX_DBS-0.5m_RLatLon0.03_PT030H.nc 2026-05-03 18:13 17M
20260503T12Z_MSC_CAPS_SeaWaterVelocityX_DBS-all_RLatLon0.03_PT030H.nc 2026-05-03 18:13 199M
20260503T12Z_MSC_CAPS_SeaWaterVelocityY_DBS-0.5m_RLatLon0.03_PT030H.nc 2026-05-03 18:13 17M
20260503T12Z_MSC_CAPS_SeaWaterVelocityY_DBS-all_RLatLon0.03_PT030H.nc 2026-05-03 18:13 209M
20260503T12Z_MSC_CAPS_SensibleHeatNetFlux_Sfc_RLatLon0.03_PT030H.grib2 2026-05-03 18:17 2.2M
20260503T12Z_MSC_CAPS_ShowalterIndex_IsbL-0500_RLatLon0.03_PT030H.grib2 2026-05-03 18:17 4.3M
20260503T12Z_MSC_CAPS_Snow-Accum_Sfc_RLatLon0.03_PT030H.grib2 2026-05-03 18:17 3.9M
20260503T12Z_MSC_CAPS_SnowDensity_Sfc_RLatLon0.03_PT030H.grib2 2026-05-03 18:17 1.3M
20260503T12Z_MSC_CAPS_SnowDepthWaterEquivalent_Sfc_RLatLon0.03_PT030H.grib2 2026-05-03 18:17 663K
20260503T12Z_MSC_CAPS_SnowDepth_Sfc_RLatLon0.03_PT030H.grib2 2026-05-03 18:17 1.1M
20260503T12Z_MSC_CAPS_SoilTemp_DBS-0to10cm_RLatLon0.03_PT030H.grib2 2026-05-03 18:17 1.6M
20260503T12Z_MSC_CAPS_SoilTemp_Sfc_RLatLon0.03_PT030H.grib2 2026-05-03 18:17 1.9M
20260503T12Z_MSC_CAPS_SoilVolumetricIceContent_Sfc_RLatLon0.03_PT030H.grib2 2026-05-03 18:17 1.4M
20260503T12Z_MSC_CAPS_SoilVolumetricWaterContent_DBS-0to10cm_RLatLon0.03_PT030H.grib2 2026-05-03 18:17 1.3M
20260503T12Z_MSC_CAPS_SoilVolumetricWaterContent_DBS-0to1cm_RLatLon0.03_PT030H.grib2 2026-05-03 18:17 1.7M
20260503T12Z_MSC_CAPS_SpecificHumidity_AGL-120m_RLatLon0.03_PT030H.grib2 2026-05-03 18:17 1.5M
20260503T12Z_MSC_CAPS_SpecificHumidity_AGL-2m_RLatLon0.03_PT030H.grib2 2026-05-03 18:17 1.7M
20260503T12Z_MSC_CAPS_SpecificHumidity_AGL-40m_RLatLon0.03_PT030H.grib2 2026-05-03 18:17 1.5M
20260503T12Z_MSC_CAPS_SpecificHumidity_AGL-80m_RLatLon0.03_PT030H.grib2 2026-05-03 18:17 1.5M
20260503T12Z_MSC_CAPS_SpecificHumidity_IsbL-0050_RLatLon0.03_PT030H.grib2 2026-05-03 18:17 911K
20260503T12Z_MSC_CAPS_SpecificHumidity_IsbL-0100_RLatLon0.03_PT030H.grib2 2026-05-03 18:17 1.0M
20260503T12Z_MSC_CAPS_SpecificHumidity_IsbL-0150_RLatLon0.03_PT030H.grib2 2026-05-03 18:17 787K
20260503T12Z_MSC_CAPS_SpecificHumidity_IsbL-0175_RLatLon0.03_PT030H.grib2 2026-05-03 18:17 1.0M
20260503T12Z_MSC_CAPS_SpecificHumidity_IsbL-0200_RLatLon0.03_PT030H.grib2 2026-05-03 18:17 903K
20260503T12Z_MSC_CAPS_SpecificHumidity_IsbL-0225_RLatLon0.03_PT030H.grib2 2026-05-03 18:17 865K
20260503T12Z_MSC_CAPS_SpecificHumidity_IsbL-0250_RLatLon0.03_PT030H.grib2 2026-05-03 18:17 1.1M
20260503T12Z_MSC_CAPS_SpecificHumidity_IsbL-0275_RLatLon0.03_PT030H.grib2 2026-05-03 18:17 1.1M
20260503T12Z_MSC_CAPS_SpecificHumidity_IsbL-0300_RLatLon0.03_PT030H.grib2 2026-05-03 18:17 1.1M
20260503T12Z_MSC_CAPS_SpecificHumidity_IsbL-0350_RLatLon0.03_PT030H.grib2 2026-05-03 18:17 969K
20260503T12Z_MSC_CAPS_SpecificHumidity_IsbL-0400_RLatLon0.03_PT030H.grib2 2026-05-03 18:17 965K
20260503T12Z_MSC_CAPS_SpecificHumidity_IsbL-0450_RLatLon0.03_PT030H.grib2 2026-05-03 18:17 1.1M
20260503T12Z_MSC_CAPS_SpecificHumidity_IsbL-0500_RLatLon0.03_PT030H.grib2 2026-05-03 18:17 1.1M
20260503T12Z_MSC_CAPS_SpecificHumidity_IsbL-0550_RLatLon0.03_PT030H.grib2 2026-05-03 18:17 1.3M
20260503T12Z_MSC_CAPS_SpecificHumidity_IsbL-0600_RLatLon0.03_PT030H.grib2 2026-05-03 18:17 1.4M
20260503T12Z_MSC_CAPS_SpecificHumidity_IsbL-0650_RLatLon0.03_PT030H.grib2 2026-05-03 18:17 1.5M
20260503T12Z_MSC_CAPS_SpecificHumidity_IsbL-0700_RLatLon0.03_PT030H.grib2 2026-05-03 18:17 1.3M
20260503T12Z_MSC_CAPS_SpecificHumidity_IsbL-0750_RLatLon0.03_PT030H.grib2 2026-05-03 18:17 1.4M
20260503T12Z_MSC_CAPS_SpecificHumidity_IsbL-0800_RLatLon0.03_PT030H.grib2 2026-05-03 18:17 1.5M
20260503T12Z_MSC_CAPS_SpecificHumidity_IsbL-0850_RLatLon0.03_PT030H.grib2 2026-05-03 18:17 1.8M
20260503T12Z_MSC_CAPS_SpecificHumidity_IsbL-0875_RLatLon0.03_PT030H.grib2 2026-05-03 18:17 1.8M
20260503T12Z_MSC_CAPS_SpecificHumidity_IsbL-0900_RLatLon0.03_PT030H.grib2 2026-05-03 18:17 1.5M
20260503T12Z_MSC_CAPS_SpecificHumidity_IsbL-0925_RLatLon0.03_PT030H.grib2 2026-05-03 18:17 1.5M
20260503T12Z_MSC_CAPS_SpecificHumidity_IsbL-0950_RLatLon0.03_PT030H.grib2 2026-05-03 18:17 1.6M
20260503T12Z_MSC_CAPS_SpecificHumidity_IsbL-0970_RLatLon0.03_PT030H.grib2 2026-05-03 18:17 1.6M
20260503T12Z_MSC_CAPS_SpecificHumidity_IsbL-0985_RLatLon0.03_PT030H.grib2 2026-05-03 18:17 1.7M
20260503T12Z_MSC_CAPS_SpecificHumidity_IsbL-1000_RLatLon0.03_PT030H.grib2 2026-05-03 18:17 1.7M
20260503T12Z_MSC_CAPS_SpecificHumidity_IsbL-1015_RLatLon0.03_PT030H.grib2 2026-05-03 18:17 1.7M
20260503T12Z_MSC_CAPS_SpecificHumidity_Sfc_RLatLon0.03_PT030H.grib2 2026-05-03 18:17 2.1M
20260503T12Z_MSC_CAPS_StormRelativeHelicity_Sfc_RLatLon0.03_PT030H.grib2 2026-05-03 18:17 3.3M
20260503T12Z_MSC_CAPS_Thickness_IsbL-1000to0500_RLatLon0.03_PT030H.grib2 2026-05-03 18:17 462K
20260503T12Z_MSC_CAPS_TotalCloudCover_Sfc_RLatLon0.03_PT030H.grib2 2026-05-03 18:17 3.5M
20260503T12Z_MSC_CAPS_TurboclineDepth_Sfc_RLatLon0.03_PT030H.nc 2026-05-03 18:13 16M
20260503T12Z_MSC_CAPS_UpwardLongwaveRadiationFlux_NTAtm_RLatLon0.03_PT030H.grib2 2026-05-03 18:17 2.9M
20260503T12Z_MSC_CAPS_UpwardShortwaveRadiationFlux_NTAtm_RLatLon0.03_PT030H.grib2 2026-05-03 18:17 2.6M
20260503T12Z_MSC_CAPS_VerticalVelocity_IsbL-0250_RLatLon0.03_PT030H.grib2 2026-05-03 18:17 1.2M
20260503T12Z_MSC_CAPS_VerticalVelocity_IsbL-0500_RLatLon0.03_PT030H.grib2 2026-05-03 18:17 1.2M
20260503T12Z_MSC_CAPS_VerticalVelocity_IsbL-0700_RLatLon0.03_PT030H.grib2 2026-05-03 18:17 1.2M
20260503T12Z_MSC_CAPS_VerticalVelocity_IsbL-0850_RLatLon0.03_PT030H.grib2 2026-05-03 18:17 1.1M
20260503T12Z_MSC_CAPS_VerticalVelocity_IsbL-1000_RLatLon0.03_PT030H.grib2 2026-05-03 18:17 1.3M
20260503T12Z_MSC_CAPS_WindDir_AGL-10m_RLatLon0.03_PT030H.grib2 2026-05-03 18:17 2.4M
20260503T12Z_MSC_CAPS_WindDir_AGL-120m_RLatLon0.03_PT030H.grib2 2026-05-03 18:17 1.3M
20260503T12Z_MSC_CAPS_WindDir_AGL-40m_RLatLon0.03_PT030H.grib2 2026-05-03 18:17 1.4M
20260503T12Z_MSC_CAPS_WindDir_AGL-80m_RLatLon0.03_PT030H.grib2 2026-05-03 18:17 1.3M
20260503T12Z_MSC_CAPS_WindDir_IsbL-0050_RLatLon0.03_PT030H.grib2 2026-05-03 18:17 1.0M
20260503T12Z_MSC_CAPS_WindDir_IsbL-0100_RLatLon0.03_PT030H.grib2 2026-05-03 18:17 1.0M
20260503T12Z_MSC_CAPS_WindDir_IsbL-0150_RLatLon0.03_PT030H.grib2 2026-05-03 18:17 1.0M
20260503T12Z_MSC_CAPS_WindDir_IsbL-0175_RLatLon0.03_PT030H.grib2 2026-05-03 18:17 1.1M
20260503T12Z_MSC_CAPS_WindDir_IsbL-0200_RLatLon0.03_PT030H.grib2 2026-05-03 18:17 1.1M
20260503T12Z_MSC_CAPS_WindDir_IsbL-0225_RLatLon0.03_PT030H.grib2 2026-05-03 18:17 1.1M
20260503T12Z_MSC_CAPS_WindDir_IsbL-0250_RLatLon0.03_PT030H.grib2 2026-05-03 18:17 1.1M
20260503T12Z_MSC_CAPS_WindDir_IsbL-0275_RLatLon0.03_PT030H.grib2 2026-05-03 18:17 1.1M
20260503T12Z_MSC_CAPS_WindDir_IsbL-0300_RLatLon0.03_PT030H.grib2 2026-05-03 18:17 1.0M
20260503T12Z_MSC_CAPS_WindDir_IsbL-0350_RLatLon0.03_PT030H.grib2 2026-05-03 18:17 1.1M
20260503T12Z_MSC_CAPS_WindDir_IsbL-0400_RLatLon0.03_PT030H.grib2 2026-05-03 18:17 1.1M
20260503T12Z_MSC_CAPS_WindDir_IsbL-0450_RLatLon0.03_PT030H.grib2 2026-05-03 18:17 1.2M
20260503T12Z_MSC_CAPS_WindDir_IsbL-0500_RLatLon0.03_PT030H.grib2 2026-05-03 18:17 1.2M
20260503T12Z_MSC_CAPS_WindDir_IsbL-0550_RLatLon0.03_PT030H.grib2 2026-05-03 18:17 1.3M
20260503T12Z_MSC_CAPS_WindDir_IsbL-0600_RLatLon0.03_PT030H.grib2 2026-05-03 18:17 1.2M
20260503T12Z_MSC_CAPS_WindDir_IsbL-0650_RLatLon0.03_PT030H.grib2 2026-05-03 18:17 1.3M
20260503T12Z_MSC_CAPS_WindDir_IsbL-0700_RLatLon0.03_PT030H.grib2 2026-05-03 18:17 1.4M
20260503T12Z_MSC_CAPS_WindDir_IsbL-0750_RLatLon0.03_PT030H.grib2 2026-05-03 18:17 1.5M
20260503T12Z_MSC_CAPS_WindDir_IsbL-0800_RLatLon0.03_PT030H.grib2 2026-05-03 18:17 1.6M
20260503T12Z_MSC_CAPS_WindDir_IsbL-0850_RLatLon0.03_PT030H.grib2 2026-05-03 18:17 1.8M
20260503T12Z_MSC_CAPS_WindDir_IsbL-0875_RLatLon0.03_PT030H.grib2 2026-05-03 18:17 1.8M
20260503T12Z_MSC_CAPS_WindDir_IsbL-0900_RLatLon0.03_PT030H.grib2 2026-05-03 18:17 1.9M
20260503T12Z_MSC_CAPS_WindDir_IsbL-0925_RLatLon0.03_PT030H.grib2 2026-05-03 18:17 2.0M
20260503T12Z_MSC_CAPS_WindDir_IsbL-0950_RLatLon0.03_PT030H.grib2 2026-05-03 18:17 2.0M
20260503T12Z_MSC_CAPS_WindDir_IsbL-0970_RLatLon0.03_PT030H.grib2 2026-05-03 18:17 2.1M
20260503T12Z_MSC_CAPS_WindDir_IsbL-0985_RLatLon0.03_PT030H.grib2 2026-05-03 18:17 2.2M
20260503T12Z_MSC_CAPS_WindDir_IsbL-1000_RLatLon0.03_PT030H.grib2 2026-05-03 18:17 2.3M
20260503T12Z_MSC_CAPS_WindDir_IsbL-1015_RLatLon0.03_PT030H.grib2 2026-05-03 18:17 2.4M
20260503T12Z_MSC_CAPS_WindGust-Max_AGL-10m_RLatLon0.03_PT030H.grib2 2026-05-03 18:17 2.5M
20260503T12Z_MSC_CAPS_WindGust-Min_AGL-10m_RLatLon0.03_PT030H.grib2 2026-05-03 18:17 2.4M
20260503T12Z_MSC_CAPS_WindGust_AGL-10m_RLatLon0.03_PT030H.grib2 2026-05-03 18:17 2.5M
20260503T12Z_MSC_CAPS_WindSpeed_AGL-10m_RLatLon0.03_PT030H.grib2 2026-05-03 18:17 2.1M
20260503T12Z_MSC_CAPS_WindSpeed_AGL-120m_RLatLon0.03_PT030H.grib2 2026-05-03 18:17 1.2M
20260503T12Z_MSC_CAPS_WindSpeed_AGL-40m_RLatLon0.03_PT030H.grib2 2026-05-03 18:17 1.6M
20260503T12Z_MSC_CAPS_WindSpeed_AGL-80m_RLatLon0.03_PT030H.grib2 2026-05-03 18:17 1.5M
20260503T12Z_MSC_CAPS_WindSpeed_IsbL-0050_RLatLon0.03_PT030H.grib2 2026-05-03 18:17 940K
20260503T12Z_MSC_CAPS_WindSpeed_IsbL-0100_RLatLon0.03_PT030H.grib2 2026-05-03 18:17 969K
20260503T12Z_MSC_CAPS_WindSpeed_IsbL-0150_RLatLon0.03_PT030H.grib2 2026-05-03 18:17 1.1M
20260503T12Z_MSC_CAPS_WindSpeed_IsbL-0175_RLatLon0.03_PT030H.grib2 2026-05-03 18:17 1.1M
20260503T12Z_MSC_CAPS_WindSpeed_IsbL-0200_RLatLon0.03_PT030H.grib2 2026-05-03 18:17 943K
20260503T12Z_MSC_CAPS_WindSpeed_IsbL-0225_RLatLon0.03_PT030H.grib2 2026-05-03 18:17 959K
20260503T12Z_MSC_CAPS_WindSpeed_IsbL-0250_RLatLon0.03_PT030H.grib2 2026-05-03 18:17 1.0M
20260503T12Z_MSC_CAPS_WindSpeed_IsbL-0275_RLatLon0.03_PT030H.grib2 2026-05-03 18:17 1.0M
20260503T12Z_MSC_CAPS_WindSpeed_IsbL-0300_RLatLon0.03_PT030H.grib2 2026-05-03 18:17 1.0M
20260503T12Z_MSC_CAPS_WindSpeed_IsbL-0350_RLatLon0.03_PT030H.grib2 2026-05-03 18:17 1.0M
20260503T12Z_MSC_CAPS_WindSpeed_IsbL-0400_RLatLon0.03_PT030H.grib2 2026-05-03 18:17 1.0M
20260503T12Z_MSC_CAPS_WindSpeed_IsbL-0450_RLatLon0.03_PT030H.grib2 2026-05-03 18:17 1.0M
20260503T12Z_MSC_CAPS_WindSpeed_IsbL-0500_RLatLon0.03_PT030H.grib2 2026-05-03 18:17 1.4M
20260503T12Z_MSC_CAPS_WindSpeed_IsbL-0550_RLatLon0.03_PT030H.grib2 2026-05-03 18:17 1.4M
20260503T12Z_MSC_CAPS_WindSpeed_IsbL-0600_RLatLon0.03_PT030H.grib2 2026-05-03 18:17 1.4M
20260503T12Z_MSC_CAPS_WindSpeed_IsbL-0650_RLatLon0.03_PT030H.grib2 2026-05-03 18:17 1.5M
20260503T12Z_MSC_CAPS_WindSpeed_IsbL-0700_RLatLon0.03_PT030H.grib2 2026-05-03 18:17 1.5M
20260503T12Z_MSC_CAPS_WindSpeed_IsbL-0750_RLatLon0.03_PT030H.grib2 2026-05-03 18:17 1.6M
20260503T12Z_MSC_CAPS_WindSpeed_IsbL-0800_RLatLon0.03_PT030H.grib2 2026-05-03 18:17 1.6M
20260503T12Z_MSC_CAPS_WindSpeed_IsbL-0850_RLatLon0.03_PT030H.grib2 2026-05-03 18:17 1.7M
20260503T12Z_MSC_CAPS_WindSpeed_IsbL-0875_RLatLon0.03_PT030H.grib2 2026-05-03 18:17 1.8M
20260503T12Z_MSC_CAPS_WindSpeed_IsbL-0900_RLatLon0.03_PT030H.grib2 2026-05-03 18:17 1.8M
20260503T12Z_MSC_CAPS_WindSpeed_IsbL-0925_RLatLon0.03_PT030H.grib2 2026-05-03 18:17 1.9M
20260503T12Z_MSC_CAPS_WindSpeed_IsbL-0950_RLatLon0.03_PT030H.grib2 2026-05-03 18:17 1.9M
20260503T12Z_MSC_CAPS_WindSpeed_IsbL-0970_RLatLon0.03_PT030H.grib2 2026-05-03 18:17 2.0M
20260503T12Z_MSC_CAPS_WindSpeed_IsbL-0985_RLatLon0.03_PT030H.grib2 2026-05-03 18:17 2.0M
20260503T12Z_MSC_CAPS_WindSpeed_IsbL-1000_RLatLon0.03_PT030H.grib2 2026-05-03 18:17 2.1M
20260503T12Z_MSC_CAPS_WindSpeed_IsbL-1015_RLatLon0.03_PT030H.grib2 2026-05-03 18:17 2.1M
20260503T12Z_MSC_CAPS_WindU_AGL-10m_RLatLon0.03_PT030H.grib2 2026-05-03 18:17 2.0M
20260503T12Z_MSC_CAPS_WindU_AGL-120m_RLatLon0.03_PT030H.grib2 2026-05-03 18:17 1.2M
20260503T12Z_MSC_CAPS_WindU_AGL-40m_RLatLon0.03_PT030H.grib2 2026-05-03 18:17 1.2M
20260503T12Z_MSC_CAPS_WindU_AGL-80m_RLatLon0.03_PT030H.grib2 2026-05-03 18:17 1.2M
20260503T12Z_MSC_CAPS_WindU_IsbL-0050_RLatLon0.03_PT030H.grib2 2026-05-03 18:17 719K
20260503T12Z_MSC_CAPS_WindU_IsbL-0100_RLatLon0.03_PT030H.grib2 2026-05-03 18:17 809K
20260503T12Z_MSC_CAPS_WindU_IsbL-0150_RLatLon0.03_PT030H.grib2 2026-05-03 18:17 927K
20260503T12Z_MSC_CAPS_WindU_IsbL-0175_RLatLon0.03_PT030H.grib2 2026-05-03 18:17 731K
20260503T12Z_MSC_CAPS_WindU_IsbL-0200_RLatLon0.03_PT030H.grib2 2026-05-03 18:17 878K
20260503T12Z_MSC_CAPS_WindU_IsbL-0225_RLatLon0.03_PT030H.grib2 2026-05-03 18:17 896K
20260503T12Z_MSC_CAPS_WindU_IsbL-0250_RLatLon0.03_PT030H.grib2 2026-05-03 18:17 701K
20260503T12Z_MSC_CAPS_WindU_IsbL-0275_RLatLon0.03_PT030H.grib2 2026-05-03 18:17 707K
20260503T12Z_MSC_CAPS_WindU_IsbL-0300_RLatLon0.03_PT030H.grib2 2026-05-03 18:17 715K
20260503T12Z_MSC_CAPS_WindU_IsbL-0350_RLatLon0.03_PT030H.grib2 2026-05-03 18:17 726K
20260503T12Z_MSC_CAPS_WindU_IsbL-0400_RLatLon0.03_PT030H.grib2 2026-05-03 18:17 730K
20260503T12Z_MSC_CAPS_WindU_IsbL-0450_RLatLon0.03_PT030H.grib2 2026-05-03 18:17 971K
20260503T12Z_MSC_CAPS_WindU_IsbL-0500_RLatLon0.03_PT030H.grib2 2026-05-03 18:17 1.0M
20260503T12Z_MSC_CAPS_WindU_IsbL-0550_RLatLon0.03_PT030H.grib2 2026-05-03 18:17 1.0M
20260503T12Z_MSC_CAPS_WindU_IsbL-0600_RLatLon0.03_PT030H.grib2 2026-05-03 18:17 957K
20260503T12Z_MSC_CAPS_WindU_IsbL-0650_RLatLon0.03_PT030H.grib2 2026-05-03 18:17 1.0M
20260503T12Z_MSC_CAPS_WindU_IsbL-0700_RLatLon0.03_PT030H.grib2 2026-05-03 18:17 1.0M
20260503T12Z_MSC_CAPS_WindU_IsbL-0750_RLatLon0.03_PT030H.grib2 2026-05-03 18:17 1.1M
20260503T12Z_MSC_CAPS_WindU_IsbL-0800_RLatLon0.03_PT030H.grib2 2026-05-03 18:17 1.1M
20260503T12Z_MSC_CAPS_WindU_IsbL-0850_RLatLon0.03_PT030H.grib2 2026-05-03 18:17 1.2M
20260503T12Z_MSC_CAPS_WindU_IsbL-0875_RLatLon0.03_PT030H.grib2 2026-05-03 18:17 1.3M
20260503T12Z_MSC_CAPS_WindU_IsbL-0900_RLatLon0.03_PT030H.grib2 2026-05-03 18:17 1.3M
20260503T12Z_MSC_CAPS_WindU_IsbL-0925_RLatLon0.03_PT030H.grib2 2026-05-03 18:17 1.3M
20260503T12Z_MSC_CAPS_WindU_IsbL-0950_RLatLon0.03_PT030H.grib2 2026-05-03 18:17 1.4M
20260503T12Z_MSC_CAPS_WindU_IsbL-0970_RLatLon0.03_PT030H.grib2 2026-05-03 18:17 1.4M
20260503T12Z_MSC_CAPS_WindU_IsbL-0985_RLatLon0.03_PT030H.grib2 2026-05-03 18:17 1.5M
20260503T12Z_MSC_CAPS_WindU_IsbL-1000_RLatLon0.03_PT030H.grib2 2026-05-03 18:17 1.8M
20260503T12Z_MSC_CAPS_WindU_IsbL-1015_RLatLon0.03_PT030H.grib2 2026-05-03 18:17 2.0M
20260503T12Z_MSC_CAPS_WindV_AGL-10m_RLatLon0.03_PT030H.grib2 2026-05-03 18:17 2.0M
20260503T12Z_MSC_CAPS_WindV_AGL-120m_RLatLon0.03_PT030H.grib2 2026-05-03 18:17 1.2M
20260503T12Z_MSC_CAPS_WindV_AGL-40m_RLatLon0.03_PT030H.grib2 2026-05-03 18:17 1.2M
20260503T12Z_MSC_CAPS_WindV_AGL-80m_RLatLon0.03_PT030H.grib2 2026-05-03 18:17 1.2M
20260503T12Z_MSC_CAPS_WindV_IsbL-0050_RLatLon0.03_PT030H.grib2 2026-05-03 18:17 766K
20260503T12Z_MSC_CAPS_WindV_IsbL-0100_RLatLon0.03_PT030H.grib2 2026-05-03 18:17 1.0M
20260503T12Z_MSC_CAPS_WindV_IsbL-0150_RLatLon0.03_PT030H.grib2 2026-05-03 18:17 714K
20260503T12Z_MSC_CAPS_WindV_IsbL-0175_RLatLon0.03_PT030H.grib2 2026-05-03 18:17 847K
20260503T12Z_MSC_CAPS_WindV_IsbL-0200_RLatLon0.03_PT030H.grib2 2026-05-03 18:17 869K
20260503T12Z_MSC_CAPS_WindV_IsbL-0225_RLatLon0.03_PT030H.grib2 2026-05-03 18:17 893K
20260503T12Z_MSC_CAPS_WindV_IsbL-0250_RLatLon0.03_PT030H.grib2 2026-05-03 18:17 699K
20260503T12Z_MSC_CAPS_WindV_IsbL-0275_RLatLon0.03_PT030H.grib2 2026-05-03 18:17 707K
20260503T12Z_MSC_CAPS_WindV_IsbL-0300_RLatLon0.03_PT030H.grib2 2026-05-03 18:17 713K
20260503T12Z_MSC_CAPS_WindV_IsbL-0350_RLatLon0.03_PT030H.grib2 2026-05-03 18:17 726K
20260503T12Z_MSC_CAPS_WindV_IsbL-0400_RLatLon0.03_PT030H.grib2 2026-05-03 18:17 731K
20260503T12Z_MSC_CAPS_WindV_IsbL-0450_RLatLon0.03_PT030H.grib2 2026-05-03 18:17 971K
20260503T12Z_MSC_CAPS_WindV_IsbL-0500_RLatLon0.03_PT030H.grib2 2026-05-03 18:17 1.0M
20260503T12Z_MSC_CAPS_WindV_IsbL-0550_RLatLon0.03_PT030H.grib2 2026-05-03 18:17 1.0M
20260503T12Z_MSC_CAPS_WindV_IsbL-0600_RLatLon0.03_PT030H.grib2 2026-05-03 18:17 957K
20260503T12Z_MSC_CAPS_WindV_IsbL-0650_RLatLon0.03_PT030H.grib2 2026-05-03 18:17 1.0M
20260503T12Z_MSC_CAPS_WindV_IsbL-0700_RLatLon0.03_PT030H.grib2 2026-05-03 18:17 1.0M
20260503T12Z_MSC_CAPS_WindV_IsbL-0750_RLatLon0.03_PT030H.grib2 2026-05-03 18:17 1.1M
20260503T12Z_MSC_CAPS_WindV_IsbL-0800_RLatLon0.03_PT030H.grib2 2026-05-03 18:17 1.4M
20260503T12Z_MSC_CAPS_WindV_IsbL-0850_RLatLon0.03_PT030H.grib2 2026-05-03 18:17 1.2M
20260503T12Z_MSC_CAPS_WindV_IsbL-0875_RLatLon0.03_PT030H.grib2 2026-05-03 18:17 1.2M
20260503T12Z_MSC_CAPS_WindV_IsbL-0900_RLatLon0.03_PT030H.grib2 2026-05-03 18:17 1.3M
20260503T12Z_MSC_CAPS_WindV_IsbL-0925_RLatLon0.03_PT030H.grib2 2026-05-03 18:17 1.3M
20260503T12Z_MSC_CAPS_WindV_IsbL-0950_RLatLon0.03_PT030H.grib2 2026-05-03 18:17 1.4M
20260503T12Z_MSC_CAPS_WindV_IsbL-0970_RLatLon0.03_PT030H.grib2 2026-05-03 18:17 1.4M
20260503T12Z_MSC_CAPS_WindV_IsbL-0985_RLatLon0.03_PT030H.grib2 2026-05-03 18:17 1.8M
20260503T12Z_MSC_CAPS_WindV_IsbL-1000_RLatLon0.03_PT030H.grib2 2026-05-03 18:17 1.9M
20260503T12Z_MSC_CAPS_WindV_IsbL-1015_RLatLon0.03_PT030H.grib2 2026-05-03 18:17 2.0M